Sanford, NC

4:46 PM EST on January 16, 2018 (GMT -0500)
Raleigh Executive Jetport

Weather History for KTTA - December, 2012

Change the Weather History Date:

Sunday, December 30, 2012

  Actual Average (KHRJ) Record (KHRJ)
Temperature  
Mean Temperature 36 °F -  
Max Temperature 47 °F 51 °F 78 °F (1984)
Min Temperature 26 °F 31 °F 11 °F (1983)
Degree Days  
Heating Degree Days 29    
Moisture  
Dew Point 22 °F    
Average Humidity 57    
Maximum Humidity 88    
Minimum Humidity 32    
Precipitation  
Precipitation 0.00 in - - ()
Sea Level Pressure  
Sea Level Pressure 30.25 in    
Wind  
Wind Speed 6 mph (West)    
Max Wind Speed 13 mph    
Max Gust Speed 21 mph    
Visibility 10 miles    
Events      
Averages and records for this station are not official NWS values.
T = Trace of Precipitation, MM = Missing Value Source: NWS Daily Summary

Daily Weather History Graph

Daily Weather History Graph

Search for Another Location

Airport or City:

Trip Planner

Search our weather history database for the weather conditions in past years. The results will help you decide how hot, cold, wet, or windy it might be!

Date:

Astronomy

Dec. 30, 2012 Rise Set
Actual Time 7:25 AM EST 5:12 PM EST
Civil Twilight 6:57 AM EST 5:41 PM EST
Nautical Twilight 6:25 AM EST 6:13 PM EST
Astronomical Twilight 5:54 AM EST 6:44 PM EST
Moon 7:37 PM EST (12/30) 8:38 AM EST (12/30)
Length of Visible Light 10h 44m
Length of Day
9h 47m
Waning Gibbous, 95% of the Moon is Illuminated
Dec 30
Waning Gibbous
Jan 4
Last Quarter
Jan 11
New
Jan 18
First Quarter
Jan 26
Full

Hourly Weather History & Observations

Time (EST) Temp. Windchill Dew Point Humidity Pressure Visibility Wind Dir Wind Speed Gust Speed Precip Events Conditions
12:15 AM 40.6 °F 33.4 °F 23.7 °F 51% 29.98 in 10.0 mi WNW 12.7 mph 20.7 mph N/A   Scattered Clouds
12:35 AM 40.1 °F 33.6 °F 23.5 °F 52% 29.99 in 10.0 mi West 10.4 mph - N/A   Scattered Clouds
12:55 AM 39.4 °F 33.2 °F 23.4 °F 53% 30.00 in 10.0 mi WNW 9.2 mph - N/A   Clear
1:15 AM 38.7 °F 35.2 °F 23.4 °F 54% 30.01 in 10.0 mi West 4.6 mph - N/A   Clear
1:35 AM 38.3 °F 33.2 °F 22.6 °F 53% 30.01 in 10.0 mi WNW 6.9 mph - N/A   Clear
1:55 AM 37.6 °F 32.3 °F 22.8 °F 55% 30.03 in 10.0 mi WNW 6.9 mph - N/A   Clear
2:15 AM 37.0 °F 34.5 °F 23.0 °F 57% 30.04 in 10.0 mi West 3.5 mph - N/A   Clear
2:35 AM 36.9 °F 31.4 °F 22.8 °F 57% 30.06 in 10.0 mi WNW 6.9 mph - N/A   Clear
2:55 AM 37.0 °F 33.3 °F 22.3 °F 55% 30.06 in 10.0 mi West 4.6 mph - N/A   Clear
3:15 AM 36.0 °F 32.1 °F 22.6 °F 58% 30.07 in 10.0 mi West 4.6 mph - N/A   Clear
3:35 AM 35.2 °F 32.4 °F 22.6 °F 60% 30.08 in 10.0 mi West 3.5 mph - N/A   Clear
3:55 AM 35.8 °F 31.9 °F 22.1 °F 58% 30.08 in 10.0 mi West 4.6 mph - N/A   Clear
4:15 AM 35.2 °F 31.2 °F 22.3 °F 59% 30.09 in 10.0 mi West 4.6 mph - N/A   Clear
4:35 AM 35.4 °F - 22.8 °F 60% 30.10 in 10.0 mi Calm Calm - N/A   Mostly Cloudy
4:55 AM 35.4 °F - 23.0 °F 61% 30.11 in 10.0 mi Calm Calm - N/A   Overcast
5:15 AM 34.9 °F 32.0 °F 23.4 °F 63% 30.12 in 10.0 mi West 3.5 mph - N/A   Mostly Cloudy
5:35 AM 34.5 °F 30.4 °F 23.0 °F 63% 30.14 in 10.0 mi West 4.6 mph - N/A   Clear
5:55 AM 32.9 °F 28.5 °F 23.7 °F 69% 30.15 in 10.0 mi West 4.6 mph - N/A   Clear
6:15 AM 32.0 °F 28.7 °F 23.9 °F 72% 30.17 in 10.0 mi WSW 3.5 mph - N/A   Clear
6:35 AM 32.2 °F 27.7 °F 23.4 °F 70% 30.17 in 10.0 mi West 4.6 mph - N/A   Clear
7:15 AM 34.0 °F 31.0 °F 20.8 °F 59% 30.21 in 10.0 mi West 3.5 mph - N/A   Clear
7:35 AM 33.1 °F 30.0 °F 20.7 °F 60% 30.22 in 10.0 mi West 3.5 mph - N/A   Clear
7:55 AM 32.7 °F 28.3 °F 21.0 °F 62% 30.23 in 10.0 mi WSW 4.6 mph - N/A   Clear
8:15 AM 33.8 °F 30.8 °F 21.2 °F 60% 30.25 in 10.0 mi West 3.5 mph - N/A   Clear
8:55 AM 36.5 °F 33.9 °F 20.7 °F 53% 30.28 in 10.0 mi WSW 3.5 mph - N/A   Clear
9:15 AM 37.4 °F 32.1 °F 19.9 °F 49% 30.29 in 10.0 mi West 6.9 mph - N/A   Clear
9:35 AM 38.1 °F 31.2 °F 19.4 °F 47% 30.30 in 10.0 mi WNW 10.4 mph - N/A   Clear
9:55 AM 38.8 °F 32.6 °F 19.4 °F 46% 30.30 in 10.0 mi WNW 9.2 mph - N/A   Clear
10:15 AM 40.1 °F 34.1 °F 19.6 °F 44% 30.32 in 10.0 mi WNW 9.2 mph - N/A   Clear
10:35 AM 40.6 °F 34.8 °F 19.8 °F 43% 30.33 in 10.0 mi WNW 9.2 mph - N/A   Clear
10:55 AM 41.5 °F 36.4 °F 20.3 °F 43% 30.34 in 10.0 mi NW 8.1 mph 18.4 mph N/A   Clear
11:15 AM 42.8 °F 36.6 °F 19.8 °F 40% 30.34 in 10.0 mi NNW 11.5 mph 16.1 mph N/A   Clear
11:35 AM 42.6 °F 38.4 °F 18.5 °F 38% 30.33 in 10.0 mi NNW 6.9 mph - N/A   Clear
11:55 AM 43.3 °F 38.1 °F 18.7 °F 37% 30.32 in 10.0 mi WNW 9.2 mph 18.4 mph N/A   Clear
12:15 PM 43.7 °F 38.1 °F 18.9 °F 37% 30.32 in 10.0 mi NNW 10.4 mph - N/A   Clear
12:35 PM 44.1 °F 41.5 °F 18.7 °F 36% 30.31 in 10.0 mi NNW 4.6 mph 18.4 mph N/A   Clear
12:55 PM 44.8 °F 40.4 °F 18.5 °F 35% 30.30 in 10.0 mi West 8.1 mph 11.5 mph N/A   Clear
1:15 PM 45.1 °F 42.8 °F 18.9 °F 35% 30.30 in 10.0 mi NW 4.6 mph - N/A   Clear
1:35 PM 45.5 °F 40.8 °F 18.9 °F 35% 30.30 in 10.0 mi WNW 9.2 mph - N/A   Clear
1:55 PM 45.9 °F 42.3 °F 18.7 °F 34% 30.31 in 10.0 mi West 6.9 mph - N/A   Clear
2:15 PM 46.4 °F 42.4 °F 18.0 °F 32% 30.31 in 10.0 mi WNW 8.1 mph - N/A   Clear
2:55 PM 46.0 °F 41.9 °F 19.0 °F 34% 30.32 in 10.0 mi West 8.1 mph - N/A   Clear
3:15 PM 46.4 °F 44.3 °F 18.7 °F 33% 30.32 in 10.0 mi NW 4.6 mph - N/A   Clear
3:35 PM 46.6 °F - 18.9 °F 33% 30.32 in 10.0 mi West 8.1 mph - N/A   Clear
3:55 PM 46.8 °F - 18.5 °F 32% 30.32 in 10.0 mi WNW 6.9 mph - N/A   Clear
4:15 PM 46.6 °F - 18.7 °F 33% 30.33 in 10.0 mi WSW 5.8 mph - N/A   Clear
4:35 PM 46.0 °F 43.1 °F 18.9 °F 34% 30.32 in 10.0 mi NW 5.8 mph - N/A   Clear
4:55 PM 45.0 °F - 20.3 °F 38% 30.32 in 10.0 mi Calm Calm - N/A   Clear
5:15 PM 41.0 °F - 24.6 °F 52% 30.33 in 10.0 mi Calm Calm - N/A   Clear
5:35 PM 37.6 °F - 25.9 °F 63% 30.34 in 10.0 mi Calm Calm - N/A   Clear
5:55 PM 35.2 °F - 26.4 °F 70% 30.34 in 10.0 mi Calm Calm - N/A   Clear
6:15 PM 35.1 °F - 25.5 °F 68% 30.34 in 10.0 mi Calm Calm - N/A   Clear
6:35 PM 32.0 °F - 25.7 °F 78% 30.34 in 10.0 mi Calm Calm - N/A   Clear
6:55 PM 30.9 °F - 25.3 °F 80% 30.36 in 10.0 mi Calm Calm - N/A   Clear
7:15 PM 30.7 °F - 25.3 °F 80% 30.37 in 10.0 mi Calm Calm - N/A   Clear
7:35 PM 30.6 °F - 24.8 °F 79% 30.37 in 10.0 mi Calm Calm - N/A   Clear
7:55 PM 29.7 °F 26.1 °F 24.3 °F 80% 30.37 in 10.0 mi South 3.5 mph - N/A   Clear
8:15 PM 29.5 °F - 24.6 °F 82% 30.37 in 10.0 mi Calm Calm - N/A   Clear
8:35 PM 28.2 °F 22.0 °F 24.4 °F 86% 30.38 in 10.0 mi WSW 5.8 mph - N/A   Clear
8:55 PM 32.0 °F 28.7 °F 23.4 °F 70% 30.39 in 10.0 mi WSW 3.5 mph - N/A   Clear
9:15 PM 29.8 °F - 22.6 °F 75% 30.38 in 10.0 mi Calm Calm - N/A   Clear
9:35 PM 27.5 °F - 22.1 °F 80% 30.38 in 10.0 mi Calm Calm - N/A   Clear
9:55 PM 27.9 °F - 23.5 °F 84% 30.38 in 10.0 mi Calm Calm - N/A   Clear
10:15 PM 27.5 °F - 24.1 °F 87% 30.39 in 10.0 mi Calm Calm - N/A   Clear
10:35 PM 27.3 °F - 23.5 °F 86% 30.40 in 10.0 mi Calm Calm - N/A   Clear
11:15 PM 26.6 °F - 23.4 °F 88% 30.40 in 10.0 mi Calm Calm - N/A   Clear
11:35 PM 27.9 °F - 23.0 °F 82% 30.39 in 10.0 mi Calm Calm - N/A   Clear
11:55 PM 26.6 °F - 22.1 °F 83% 30.39 in 10.0 mi Calm Calm - N/A   Clear